Regional Weather Roundup
Issued by NWS Boston, MA

Home | Current Version | Previous Version | Text Only | Print | Product List | Glossary On
Versions: 1 2 3 4 5 6 7 8 9 10 11 12 13 14 15 16 17 18 19 20 21 22 23 24 25 26 27 28 29 30 31 32 33 34 35 36 37 38 39 40 41 42 43 44 45 46 47 48 49 50
000
ASUS41 KBOX 290710
RWRBOX

REGIONAL WEATHER ROUNDUP
NATIONAL WEATHER SERVICE TAUNTON MA
300 AM EDT SUN MAR 29 2015

NOTE:  "FAIR" INDICATES FEW OR NO CLOUDS BELOW 12,000 FEET WITH NO
SIGNIFICANT WEATHER AND/OR OBSTRUCTIONS TO VISIBILITY.  THE FOLLOWING
OBSERVATION LOCATIONS DO NOT REPORT PRESENT WEATHER...PROVINCETOWN...
SMITHFIELD...BLOCK ISLAND...KEENE...AND OXFORD.

MAZALL-290800-
EASTERN MASSACHUSETTS

CITY           SKY/WX    TMP DP  RH WIND       PRES   REMARKS
BOSTON         CLOUDY    27   8  44 NW15      30.08R WCI  15
BEVERLY        CLOUDY    26   8  46 NW13      30.06R WCI  15
LAWRENCE       CLOUDY    26   5  40 NW10      30.09R WCI  16
BEDFORD        CLOUDY    25   7  46 NW13      30.07R WCI  14
BLUE HILL        N/A     22  12  65 NW14G20   30.02R WCI   9
NORWOOD        CLOUDY    27  11  51 NW7       30.08R WCI  19
MARSHFIELD     CLOUDY    30  18  59 NW10G16   30.07R WCI  21
PLYMOUTH       CLOUDY    28  24  85 NW7       30.05R WCI  21
TAUNTON        CLOUDY    28  22  78 NW7       30.06R WCI  21
NEW BEDFORD    FLURRIES  28  25  88 NW10G16   30.05R WCI  19
$$

MAZALL-290800-
CAPE COD AND THE ISLANDS

CITY           SKY/WX    TMP DP  RH WIND       PRES   REMARKS
FALMOUTH       CLOUDY    28  27  93 N8        30.04R WCI  20
HYANNIS        FLURRIES  30  26  85 NW12      30.01R WCI  20
CHATHAM        FLURRIES  30  26  85 NW9       30.03R WCI  22
PROVINCETOWN   MOCLDY    32  19  59 N17G23    30.04S WCI  21
NANTUCKET      FLURRIES  34  29  82 N14       30.02R WCI  25
MARTHAS VNYRD  CLOUDY    30  24  78 N10       30.03S WCI  21
$$

MAZALL-290800-
CENTRAL AND WESTERN MASSACHUSETTS

CITY           SKY/WX    TMP DP  RH WIND       PRES   REMARKS
WORCESTER      CLOUDY    21   5  50 NW7       30.02R WCI  12
FITCHBURG      PTCLDY    25   7  46 NW7       30.08R WCI  17
ORANGE         MOCLDY    22   4  46 N7        30.07S WCI  13
SPRINGFIELD    PTCLDY    25   5  42 N7        30.08R WCI  17
WESTFIELD      CLOUDY    25   8  48 NW6       30.09S WCI  18
NORTH ADAMS    CLEAR     17   6  62 W6        30.11S WCI   9
PITTSFIELD     CLEAR     18   4  54 VRB5      30.05R WCI  11
$$

RIZALL-290800-
RHODE ISLAND

CITY           SKY/WX    TMP DP  RH WIND       PRES   REMARKS
PROVIDENCE     CLOUDY    27  17  66 N13       30.08R WCI  16
NEWPORT        CLOUDY    26  22  84 NW12G21   30.05R WCI  16
BLOCK ISLAND   CLOUDY    28  25  86 N10G20    30.04R WCI  19
SMITHFIELD     PTCLDY    25  12  58 N8G16     30.04R WCI  16
WESTERLY       CLOUDY    26  19  74 N14G21    30.07R WCI  14
$$

CTZALL-290800-
CONNECTICUT

CITY           SKY/WX    TMP DP  RH WIND       PRES   REMARKS
BRADLEY INTL   MOCLDY    27   9  46 N8        30.10R WCI  19
HARTFORD       CLOUDY    27  10  49 N10       30.11R WCI  17
BRIDGEPORT     CLOUDY    27  16  63 N12       30.11S WCI  17
DANBURY        CLOUDY    24   5  44 NW9       30.12R WCI  14
GROTON         CLOUDY    27  18  69 N13       30.07R WCI  16
NEW HAVEN      CLOUDY    28  18  66 NW12G20   30.09R WCI  18
CHESTER        CLOUDY    28  18  64 N10       30.06S WCI  19
MERIDEN        CLOUDY    27  16  63 N10       30.10S WCI  17
WILLIMANTIC    MOCLDY    25   9  50 N7        30.09R WCI  17
OXFORD         CLOUDY    25   9  50 N14G22    30.08R WCI  13
$$

MEZ002-015-021-024-NHZ003-005-008-011-012-014-VTZ005-008-290800-
NORTHERN NEW ENGLAND

CITY           SKY/WX    TMP DP  RH WIND       PRES   REMARKS
PORTLAND ME    PTCLDY    27   6  41 NW8       30.05R WCI  19
BANGOR ME      CLEAR     24   4  42 NW6       30.00R WCI  17
CONCORD NH     CLEAR     23   4  44 NW9       30.07R WCI  13
MANCHESTER NH  PTCLDY    24   7  48 N9        30.06R WCI  14
NASHUA NH      CLEAR     25   5  42 N7        30.09R WCI  17
PORTSMOUTH NH  PTCLDY    25   7  47 NW7       30.05R WCI  17
JAFFREY NH     CLEAR     18   5  57 CALM      30.03S
KEENE NH       CLEAR     19   7  58 CALM      30.08S
BURLINGTON VT  CLEAR     16   8  71 CALM      30.13R
MT. WASHINGTON PTCLDY    -2 -11  65 N22         N/A  WCI -26
$$

NYZ052-076-290800-
EASTERN NEW YORK

CITY           SKY/WX    TMP DP  RH WIND       PRES   REMARKS
ALBANY         CLEAR     19   5  54 CALM      30.16S
NEW YORK CITY  CLOUDY    27  12  53 NW15      30.14S WCI  15
$$

ANZALL-290800-
MARINE OBSERVATIONS

STATION/POSITION TIME  TEMP    WIND        PRES    VSBY  WAVE
                       AIR SEA DIR/SP/G                  HT/PER
                 (UTC) (F)     (DEG/KT/KT) (MB)    (MI)  (FT/S)
BOSTON BUOY      0650   29 36  330/ 17/ 21 1017.5R         6/ 8
BUZZARDS BAY     0700          350/ 19/ 20 1017.7R
NANTUCKET SOUND  0650   34 36  330/ 17/ 21 1016.4R         2/ 3
MASS BAY-STELLWA 0604   29 36  320/ 17/ 21   N/A    1 7/8  6/ 8
ISLE OF SHOALS   0700   28     320/ 15/ 17 1017.1R
S OF BLOCK IS    0608      37                N/A           5/11
$$

......................KEY.........................
  SKY/WX - SKY CONDITION/PRESENT WEATHER
  TMP    - TEMPERATURE IN FAHRENHEIT
  DWPT   - DEWPOINT IN FAHRENHEIT
  RH     - RELATIVE HUMIDITY IN PERCENT
  WIND   - DIRECTION AND SPEED IN MPH
  PRES   - MEAN SEA LEVEL PRESSURE IN INCHES OF HG
  WCI    - WIND CHILL INDEX
  VSB    - VISIBILITY IN MILES
  HX     - HEAT INDEX
  TC     - TEMPERATURE IN CELSIUS
  VRB    - VARIABLE WIND DIRECTION
  N/A    - NOT AVAILABLE


USA.gov is the U.S. government's official web portal to all federal, state and local government web resources and services.